[[{"header":{"parameterUnit":"m.s-1","parameterCategory":1,"la1":30.2991,"la2":30.254,"lo1":-89.0895,"lo2":-89.0444,"dy":0.0017,"dx":0.0017,"nx":28,"ny":28,"refTime":"2025-12-29T03:00:00:Z","depth":0,"parameterNumber":2,"parameterNumberName":"U-component_of_WINDS"},"data":[0,0,0,0,0,0,0,0,0,0,0,0,0,0,0,0,0,0,0,0,0,0,0,0,0,0,0,0,0,0,0,0,0,0,0,0,0,0,0,0,0,0,0,0,0,0,0,0,0,0,0,0,0,0,0,0,0,0,1.9025,1.9024,0,1.9017,1.9017,1.9017,1.8993,1.8992,1.8992,1.8991,1.8982,1.8983,1.8983,0,0,0,0,0,0,0,0,0,0,0,0,0,1.9019,1.9019,1.9025,1.9024,1.9024,1.9017,1.9017,1.9017,1.8993,1.8992,1.8992,1.8991,1.8982,1.8983,1.8983,0,0,0,0,0,0,0,0,0,0,0,0,0,1.9017,1.9019,1.9025,1.9012,1.901,1.9017,1.9017,1.9017,1.8993,1.8992,1.8991,1.8991,1.8982,1.8983,1.8983,1.9001,0,0,1.8984,1.8984,0,0,0,0,0,0,0,0,1.9017,1.9017,1.9014,1.9012,1.9011,1.9005,1.9011,1.9012,1.8993,1.9,1.8991,1.899,1.8991,1.899,1.899,1.9001,1.9001,1.8984,1.8985,1.8985,1.8985,0,0,0,0,0,0,0,1.9017,1.9017,1.9021,1.9014,1.9012,1.9006,1.9005,1.9011,1.9,1.8999,1.8997,1.8997,1.899,1.899,1.899,1.9,1.8984,1.8985,1.8985,1.8985,1.9026,1.9027,0,0,0,0,0,0,1.9019,1.9018,1.9022,1.9021,1.9012,1.9007,1.9006,1.9008,1.8999,1.8997,1.8997,1.8996,1.899,1.899,1.899,1.9011,1.8985,1.8985,1.8985,1.9025,1.9027,1.9027,0,0,0,0,0,0,1.9019,1.902,1.9022,1.9019,1.9019,1.9008,1.901,1.9008,1.9008,1.8998,1.8996,1.9,1.8989,1.8989,1.8999,1.901,1.8985,1.8986,1.9024,1.9026,1.9027,1.9053,0,0,0,0,0,0,1.9019,1.902,1.9027,1.9019,1.9019,1.9031,1.9011,1.9008,1.9009,1.9007,1.9,1.8998,1.8989,1.8998,1.8999,1.901,1.8986,1.9023,1.9025,1.9027,1.9051,1.9055,1.9058,0,0,0,0,0,1.9019,1.9034,1.9027,1.9028,1.9027,1.9032,1.9032,1.9021,1.901,1.9017,1.9011,1.8998,1.9009,1.9,1.9,1.9011,1.9023,1.9025,1.9026,1.9049,1.9054,1.9058,0,0,0,0,0,0,1.9042,1.9033,1.9025,1.9038,1.9036,1.9028,1.9036,1.9026,1.9027,1.9024,1.9011,1.9009,1.9021,1.9017,1.9007,1.9029,1.9014,1.9016,1.9031,1.9035,1.9039,1.9039,1.8986,0,0,0,0,0,1.9049,1.9053,1.9045,1.9057,1.9057,1.9047,1.9048,1.904,1.9037,1.9036,1.9031,1.9028,1.9031,1.9033,1.9035,1.9051,1.9049,1.9059,1.9063,1.9066,1.9067,1.9075,1.908,1.9034,1.9034,1.9034,0,0,1.9062,1.9058,1.9061,1.9062,1.9059,1.9064,1.9046,1.9052,1.9056,1.9037,1.9046,1.9042,1.9039,1.9051,1.9057,1.9049,1.908,1.9068,1.9071,1.9071,1.9078,1.9082,1.9086,1.9035,1.9035,1.9035,0,0,1.9089,1.9086,1.9096,1.9095,1.9092,1.9085,1.9088,1.9082,1.9078,1.9087,1.9074,1.9078,1.9083,1.9082,1.9081,1.911,1.9099,1.9111,1.913,1.9138,1.9142,1.9145,1.9154,1.9158,1.9113,1.9113,1.9113,0,1.9106,1.9113,1.9103,1.911,1.9111,1.9095,1.9105,1.9104,1.9102,1.9103,1.9094,1.9101,1.9098,1.911,1.9117,1.9118,1.912,1.9111,1.9142,1.9145,1.9148,1.9157,1.9161,1.9115,1.9115,1.9114,1.9114,0,1.9134,1.914,1.9148,1.9147,1.9149,1.9158,1.9149,1.9152,1.9144,1.9139,1.9148,1.9144,1.9145,1.9148,1.914,1.916,1.9155,1.9144,1.9128,1.9154,1.9162,1.9166,1.9117,1.9116,1.9116,1.9116,0,0,1.9173,1.9168,1.9171,1.917,1.9167,1.9171,1.918,1.9181,1.9184,1.9184,1.919,1.9196,1.9187,1.9187,1.9179,1.9186,1.9209,1.9175,1.9175,1.9181,1.923,1.9237,1.9242,1.9203,1.9203,1.9204,1.923,0,1.9199,1.9213,1.9204,1.9219,1.9224,1.9211,1.9218,1.9217,1.9213,1.9217,1.9212,1.9216,1.9204,1.9203,1.921,1.9205,1.9219,1.9203,1.9208,1.9208,1.9208,1.9246,1.9253,1.9278,1.9234,1.9234,1.9235,0,1.9229,1.9231,1.9247,1.9243,1.9245,1.9252,1.9253,1.9257,1.9256,1.9252,1.9253,1.9244,1.9252,1.9238,1.9249,1.9239,1.9241,1.9239,1.9239,1.9238,1.9222,1.9245,1.9286,1.929,1.924,1.9239,1.9239,0,1.9256,1.9262,1.9272,1.9273,1.9269,1.9274,1.9272,1.927,1.9272,1.9274,1.9275,1.9278,1.9279,1.9281,1.9273,1.9263,1.9285,1.927,1.9282,1.9282,1.9286,1.9285,1.9327,1.9289,1.9289,1.9289,1.9289,0,1.9284,1.9294,1.9284,1.929,1.9302,1.9292,1.9304,1.9301,1.93,1.9305,1.9294,1.93,1.9289,1.9294,1.9288,1.9298,1.9299,1.9296,1.9294,1.9296,1.9296,1.9296,1.9294,1.929,1.929,1.929,1.9289,0,1.9314,1.9308,1.9319,1.9315,1.9314,1.9323,1.9319,1.9325,1.9321,1.9328,1.9329,1.9323,1.9328,1.932,1.9324,1.932,1.9334,1.933,1.9335,1.9333,1.9345,1.9344,1.9387,1.9392,1.9352,1.9352,1.9353,0,1.9332,1.934,1.9337,1.934,1.934,1.9345,1.9347,1.9339,1.9342,1.9342,1.9348,1.9352,1.9355,1.9364,1.9359,1.9362,1.9357,1.9372,1.9358,1.936,1.9357,1.9356,1.9357,1.9375,1.9375,1.9376,1.9376,0,1.9364,1.9361,1.9365,1.9368,1.9372,1.9374,1.9375,1.9378,1.937,1.9374,1.9379,1.9381,1.9386,1.939,1.9393,1.9391,1.9382,1.9381,1.9384,1.9386,1.9388,1.9386,1.9342,1.938,1.9379,1.9379,1.9379,1.9379,1.9388,1.9394,1.9394,1.9399,1.9399,1.9401,1.9406,1.9404,1.9408,1.9411,1.9407,1.9413,1.9413,1.9415,1.9415,1.942,1.9414,1.9418,1.9419,1.942,1.9421,1.9388,1.9421,1.9421,1.9421,1.942,1.942,0,1.9419,1.9418,1.9423,1.9426,1.943,1.9422,1.9424,1.9427,1.9434,1.9434,1.9438,1.9444,1.9449,1.9445,1.9449,1.9454,1.945,1.9455,1.9454,1.9454,1.9427,1.9424,1.9459,1.9459,1.9459,1.9459,1.9459,1.9459,1.9435,1.9446,1.9443,1.9454,1.9453,1.946,1.9461,1.9463,1.9464,1.9472,1.9476,1.9474,1.9473,1.9477,1.9481,1.948,1.9481,1.9488,1.9485,1.946,1.9456,1.9452,1.9449,1.9488,1.9489,1.9512,1.9512,1.9512]},{"header":{"parameterUnit":"m.s-1","parameterCategory":1,"la1":30.2991,"la2":30.254,"lo1":-89.0895,"lo2":-89.0444,"dy":0.0017,"dx":0.0017,"nx":28,"ny":28,"refTime":"2025-12-29T03:00:00:Z","depth":0,"parameterNumber":3,"parameterNumberName":"V-component_of_WINDS"},"data":[0,0,0,0,0,0,0,0,0,0,0,0,0,0,0,0,0,0,0,0,0,0,0,0,0,0,0,0,0,0,0,0,0,0,0,0,0,0,0,0,0,0,0,0,0,0,0,0,0,0,0,0,0,0,0,0,0,0,-7.5585,-7.5588,0,-7.5792,-7.5794,-7.5796,-7.5733,-7.5729,-7.5725,-7.5721,-7.5927,-7.5936,-7.5945,0,0,0,0,0,0,0,0,0,0,0,0,0,-7.5132,-7.5141,-7.5585,-7.5588,-7.559,-7.5791,-7.5794,-7.5797,-7.5734,-7.5729,-7.5724,-7.5719,-7.5923,-7.5935,-7.5946,0,0,0,0,0,0,0,0,0,0,0,0,0,-7.5333,-7.5144,-7.5585,-7.5583,-7.5585,-7.5791,-7.5794,-7.5797,-7.5735,-7.5729,-7.5722,-7.5716,-7.592,-7.5934,-7.5948,-7.6165,0,0,-7.5991,-7.5997,0,0,0,0,0,0,0,0,-7.5321,-7.5349,-7.5581,-7.5584,-7.5586,-7.573,-7.571,-7.5921,-7.5737,-7.5678,-7.572,-7.5713,-7.5866,-7.5884,-7.5937,-7.6175,-7.6184,-7.5992,-7.6001,-7.6007,-7.6011,0,0,0,0,0,0,0,-7.5308,-7.534,-7.5667,-7.5584,-7.5588,-7.5571,-7.5592,-7.5749,-7.5806,-7.5683,-7.5679,-7.5704,-7.5866,-7.5923,-7.5941,-7.6187,-7.5992,-7.6005,-7.6013,-7.6019,-7.6613,-7.662,0,0,0,0,0,0,-7.5293,-7.5329,-7.566,-7.5673,-7.5435,-7.5584,-7.5608,-7.569,-7.5804,-7.5815,-7.571,-7.5701,-7.5902,-7.5925,-7.5948,-7.6211,-7.6007,-7.602,-7.6029,-7.6606,-7.6615,-7.6623,0,0,0,0,0,0,-7.5283,-7.5323,-7.5652,-7.55,-7.5541,-7.5599,-7.5692,-7.5698,-7.5755,-7.5824,-7.5833,-7.5758,-7.5898,-7.5928,-7.6112,-7.6218,-7.6027,-7.604,-7.6598,-7.6609,-7.6619,-7.6738,0,0,0,0,0,0,-7.527,-7.532,-7.5404,-7.5502,-7.5549,-7.5814,-7.5698,-7.5707,-7.5781,-7.5771,-7.5872,-7.5883,-7.5895,-7.6091,-7.6126,-7.6234,-7.6051,-7.6588,-7.6602,-7.6615,-7.6725,-7.6752,-7.6775,0,0,0,0,0,-7.5255,-7.5428,-7.5409,-7.5449,-7.5656,-7.582,-7.5847,-7.5859,-7.5789,-7.5874,-7.5918,-7.5879,-7.62,-7.6111,-7.615,-7.6263,-7.6582,-7.6598,-7.6614,-7.6714,-7.6747,-7.6774,0,0,0,0,0,0,-7.5339,-7.5441,-7.5421,-7.5632,-7.5718,-7.5809,-7.5917,-7.5893,-7.6,-7.5986,-7.5995,-7.6019,-7.6207,-7.6253,-7.6151,-7.6479,-7.638,-7.6405,-7.6443,-7.6475,-7.6499,-7.6484,-7.6063,0,0,0,0,0,-7.5383,-7.5509,-7.5591,-7.5769,-7.5814,-7.5858,-7.593,-7.5932,-7.6021,-7.6057,-7.6114,-7.6201,-7.6321,-7.64,-7.6514,-7.6731,-7.6752,-7.6828,-7.6853,-7.6873,-7.6894,-7.7013,-7.7048,-7.6676,-7.6676,-7.6676,0,0,-7.5473,-7.5545,-7.5624,-7.5788,-7.5855,-7.5985,-7.5889,-7.603,-7.6126,-7.6077,-7.6256,-7.6301,-7.6398,-7.66,-7.6691,-7.6643,-7.7002,-7.6894,-7.6909,-7.692,-7.7033,-7.7068,-7.71,-7.6687,-7.6685,-7.6683,0,0,-7.5705,-7.5772,-7.5929,-7.5998,-7.6102,-7.613,-7.6168,-7.6263,-7.6292,-7.6471,-7.6438,-7.6551,-7.6758,-7.6829,-7.6892,-7.7151,-7.7119,-7.7187,-7.7317,-7.7432,-7.7462,-7.7488,-7.7581,-7.7614,-7.7208,-7.7209,-7.7209,0,-7.5805,-7.6,-7.6011,-7.6156,-7.6229,-7.6193,-7.6351,-7.6418,-7.6552,-7.6603,-7.6548,-7.6808,-7.687,-7.7088,-7.7152,-7.7203,-7.7246,-7.7176,-7.7457,-7.7483,-7.7508,-7.7596,-7.7631,-7.7216,-7.7216,-7.7215,-7.7214,0,-7.6118,-7.6254,-7.6367,-7.6501,-7.6586,-7.6737,-7.677,-7.6855,-7.685,-7.6883,-7.7066,-7.714,-7.7269,-7.732,-7.7316,-7.7538,-7.7506,-7.7454,-7.7355,-7.7551,-7.7634,-7.7668,-7.7228,-7.7225,-7.7222,-7.7221,0,0,-7.6409,-7.6548,-7.6589,-7.665,-7.6762,-7.6866,-7.7014,-7.7143,-7.7216,-7.7309,-7.7434,-7.761,-7.7563,-7.7635,-7.7637,-7.7739,-7.794,-7.7674,-7.7677,-7.7722,-7.819,-7.8229,-7.8269,-7.7919,-7.7926,-7.7931,-7.8182,0,-7.6651,-7.6915,-7.6929,-7.7168,-7.7293,-7.7261,-7.739,-7.7472,-7.7507,-7.7618,-7.7655,-7.7781,-7.7709,-7.7752,-7.7851,-7.7895,-7.8034,-7.7877,-7.8034,-7.804,-7.8013,-7.8312,-7.8354,-7.8588,-7.8215,-7.8221,-7.8225,0,-7.697,-7.7076,-7.7328,-7.7422,-7.7475,-7.7591,-7.771,-7.7817,-7.7908,-7.7926,-7.8007,-7.7996,-7.8146,-7.8041,-7.8249,-7.8141,-7.8206,-7.8237,-7.8247,-7.8263,-7.8145,-7.8337,-7.8663,-7.8698,-7.8276,-7.8272,-7.8268,0,-7.7159,-7.7364,-7.7541,-7.7594,-7.7708,-7.7791,-7.7842,-7.7927,-7.8003,-7.8106,-7.8156,-7.8274,-7.8339,-7.843,-7.8451,-7.8372,-7.8658,-7.8555,-7.8677,-7.8677,-7.874,-7.8736,-7.9082,-7.878,-7.878,-7.8779,-7.8778,0,-7.7428,-7.7584,-7.7628,-7.7737,-7.791,-7.7924,-7.8094,-7.8139,-7.8216,-7.8332,-7.831,-7.8419,-7.8439,-7.8552,-7.8569,-7.8738,-7.8767,-7.8786,-7.8788,-7.8789,-7.8787,-7.8832,-7.8817,-7.8789,-7.8786,-7.8785,-7.8783,0,-7.7669,-7.7705,-7.7896,-7.7989,-7.8016,-7.814,-7.8218,-7.8323,-7.8355,-7.8503,-7.8538,-7.8589,-7.8721,-7.8751,-7.8907,-7.8918,-7.9119,-7.9105,-7.9089,-7.9088,-7.921,-7.9198,-7.9597,-7.9651,-7.9314,-7.9317,-7.932,0,-7.784,-7.7959,-7.8065,-7.8142,-7.8198,-7.8323,-7.8401,-7.8419,-7.8501,-7.8614,-7.8705,-7.8835,-7.894,-7.9152,-7.9202,-7.9322,-7.9311,-7.9443,-7.9329,-7.9326,-7.9314,-7.9307,-7.932,-7.9465,-7.9468,-7.9471,-7.9474,0,-7.8139,-7.8151,-7.8265,-7.8387,-7.8482,-7.8578,-7.8669,-7.8733,-7.8763,-7.8856,-7.8992,-7.9074,-7.9235,-7.9364,-7.9484,-7.9534,-7.951,-7.9509,-7.9544,-7.9546,-7.9532,-7.9542,-7.915,-7.95,-7.9497,-7.9495,-7.9494,-7.9493,-7.835,-7.8455,-7.8547,-7.8675,-7.8746,-7.8832,-7.8935,-7.8981,-7.9096,-7.9229,-7.9232,-7.9381,-7.9468,-7.9627,-7.9685,-7.98,-7.9759,-7.9809,-7.9822,-7.9835,-7.9846,-7.9513,-7.9822,-7.9821,-7.982,-7.982,-7.9819,0,-7.8649,-7.8706,-7.8825,-7.8954,-7.9055,-7.9024,-7.9124,-7.921,-7.9342,-7.9426,-7.9531,-7.9687,-7.9813,-7.9873,-7.9996,-8.0077,-8.0069,-8.0109,-8.0104,-8.0116,-7.9875,-7.9834,-8.0114,-8.0114,-8.0114,-8.0114,-8.0113,-8.0113,-7.8817,-7.8993,-7.9015,-7.9226,-7.9281,-7.9429,-7.9488,-7.9567,-7.9635,-7.9811,-7.9916,-7.9955,-8.003,-8.0159,-8.0272,-8.0286,-8.0333,-8.0379,-8.0388,-8.0162,-8.0133,-8.0104,-8.0065,-8.0389,-8.0389,-8.0619,-8.0621,-8.0623]}]]